Weather History for Waupaca, WI

Change the Weather History Date:

Thursday, December 20, 2012

  Actual Average Record
Temperature  
Mean Temperature 32 °F -  
Max Temperature 33 °F 27 °F 50 °F (1967)
Min Temperature 32 °F 12 °F -18 °F (1983)
Degree Days  
Heating Degree Days 32    
Moisture  
Dew Point 31 °F    
Average Humidity 91    
Maximum Humidity 100    
Minimum Humidity 81    
Precipitation  
Precipitation 0.14 in - - ()
Sea Level Pressure  
Sea Level Pressure 29.57 in    
Wind  
Wind Speed 11 mph (North)    
Max Wind Speed 21 mph    
Max Gust Speed 29 mph    
Visibility 2 miles    
Events Snow    
Averages and records for this station are not official NWS values.
T = Trace of Precipitation, MM = Missing Value Source: NWS Daily Summary

Daily Weather History Graph

Daily Weather History Graph

Search for Another Location

Airport:

Trip Planner

Search our weather history database for the weather conditions in past years. The results will help you decide how hot, cold, wet, or windy it might be!

Date:

Astronomy

Dec. 20, 2012 Rise Set
Actual Time 7:28 AM CST 4:19 PM CST
Civil Twilight 6:55 AM CST 4:52 PM CST
Nautical Twilight 6:18 AM CST 5:29 PM CST
Astronomical Twilight 5:43 AM CST 6:04 PM CST
Moon 11:48 AM CST (12/20) 12:03 AM CST (12/20)
Length of Visible Light 9h 57m
Length of Day
8h 50m
First Quarter, 55% of the Moon is Illuminated
Dec 20
First Quarter
Dec 28
Full
Jan 4
Last Quarter
Jan 11
New
Jan 18
First Quarter

Hourly Weather History & Observations

Time (CST) Temp. Windchill Dew Point Humidity Pressure Visibility Wind Dir Wind Speed Gust Speed Precip Events Conditions
12:15 AM 32.0 °F 26.4 °F 28.4 °F 87% 29.94 in 7.0 mi ENE 5.8 mph - N/A   Overcast
12:35 AM 32.0 °F 25.6 °F 28.4 °F 87% 29.92 in 2.0 mi ENE 6.9 mph - N/A Snow Light Snow
12:55 AM 32.0 °F 26.4 °F 28.4 °F 87% 29.90 in 2.0 mi NE 5.8 mph - N/A Snow Light Snow
1:15 AM 32.0 °F 26.4 °F 28.4 °F 87% 29.89 in 1.8 mi NE 5.8 mph - N/A Snow Light Snow
1:35 AM 32.0 °F 26.4 °F 28.4 °F 87% 29.88 in 1.5 mi NE 5.8 mph - N/A Snow Light Snow
1:55 AM 32.0 °F 26.4 °F 28.4 °F 87% 29.87 in 1.2 mi NE 5.8 mph - 0.01 in Snow Light Snow
2:15 AM 32.0 °F 25.6 °F 28.4 °F 87% 29.86 in 1.5 mi NE 6.9 mph - N/A Snow Light Snow
2:35 AM 32.0 °F 25.6 °F 28.4 °F 87% 29.85 in 1.5 mi NNE 6.9 mph - 0.01 in Snow Light Snow
2:55 AM 32.0 °F 24.2 °F 28.4 °F 87% 29.85 in 1.0 mi NNE 9.2 mph - 0.02 in Snow Light Snow
3:15 AM 32.0 °F 24.8 °F 30.2 °F 93% 29.83 in 0.8 mi NNE 8.1 mph - 0.04 in Snow Snow
3:35 AM 32.0 °F 24.8 °F 30.2 °F 93% 29.81 in 1.0 mi NNE 8.1 mph - 0.06 in Snow Snow
3:55 AM 32.0 °F 24.8 °F 28.4 °F 87% 29.79 in 1.0 mi NNE 8.1 mph - 0.07 in Snow Snow
4:15 AM 32.0 °F 23.6 °F 28.4 °F 87% 29.78 in 1.2 mi NNE 10.4 mph 17.3 mph 0.01 in Snow Light Snow
4:35 AM 32.0 °F 22.5 °F 28.4 °F 87% 29.76 in 1.8 mi NNE 12.7 mph - 0.01 in Snow Light Snow
4:55 AM 32.0 °F 23.0 °F 28.4 °F 87% 29.74 in 2.5 mi NNE 11.5 mph 17.3 mph 0.01 in Snow Light Snow
5:15 AM 32.0 °F 22.1 °F 28.4 °F 87% 29.73 in 2.5 mi NNE 13.8 mph 18.4 mph N/A Snow Light Snow
5:55 AM 32.0 °F 23.0 °F 28.4 °F 87% 29.70 in 1.2 mi North 11.5 mph 17.3 mph 0.01 in Snow Light Snow
6:15 AM 32.0 °F 23.0 °F 28.4 °F 87% 29.69 in 1.5 mi North 11.5 mph 18.4 mph 0.01 in Snow Light Snow
6:55 AM 32.0 °F 23.0 °F 28.4 °F 87% 29.65 in 1.2 mi NNE 11.5 mph 20.7 mph 0.01 in Snow Light Snow
7:15 AM 32.0 °F 23.0 °F 28.4 °F 87% 29.64 in 1.0 mi North 11.5 mph 20.7 mph N/A Snow Snow
7:35 AM 32.0 °F 23.0 °F 30.2 °F 93% 29.61 in 1.2 mi North 11.5 mph 24.2 mph N/A Snow Light Snow
7:55 AM 32.0 °F 21.6 °F 30.2 °F 93% 29.61 in 1.0 mi North 15.0 mph 19.6 mph N/A Snow Light Snow
8:15 AM 32.0 °F 21.2 °F 30.2 °F 93% 29.59 in 0.5 mi NNE 16.1 mph 24.2 mph N/A Snow Snow
8:35 AM 32.0 °F 21.2 °F 30.2 °F 93% 29.57 in 0.5 mi NNE 16.1 mph 20.7 mph N/A Snow Snow
8:55 AM 32.0 °F 21.6 °F 30.2 °F 93% 29.56 in 0.5 mi North 15.0 mph 26.5 mph N/A Snow Light Snow
9:15 AM 32.0 °F 21.6 °F 32.0 °F 100% 29.55 in 0.5 mi NNE 15.0 mph 24.2 mph N/A Snow Light Snow
9:55 AM 33.8 °F 23.9 °F 32.0 °F 93% 29.54 in 2.0 mi NNE 15.0 mph 21.9 mph 0.01 in Snow Light Snow
10:15 AM 33.8 °F 24.3 °F 32.0 °F 93% 29.52 in 1.2 mi NNE 13.8 mph 23.0 mph N/A Snow Light Snow
10:35 AM 33.8 °F 24.3 °F 32.0 °F 93% 29.51 in 1.2 mi North 13.8 mph 20.7 mph N/A Snow Light Snow
10:55 AM 33.8 °F 23.9 °F 32.0 °F 93% 29.48 in 4.0 mi NNE 15.0 mph 21.9 mph N/A   Overcast
11:15 AM 33.8 °F 24.3 °F 32.0 °F 93% 29.47 in 4.0 mi North 13.8 mph 23.0 mph N/A   Overcast
11:55 AM 33.8 °F 23.5 °F 32.0 °F 93% 29.44 in 2.0 mi North 16.1 mph 23.0 mph N/A Snow Light Snow
12:15 PM 33.8 °F 23.9 °F 32.0 °F 93% 29.42 in 1.2 mi North 15.0 mph 23.0 mph N/A Snow Light Snow
12:35 PM 33.8 °F 22.8 °F 32.0 °F 93% 29.40 in 0.8 mi North 18.4 mph 24.2 mph N/A Snow Light Snow
12:55 PM 33.8 °F 24.3 °F 32.0 °F 93% 29.40 in 1.0 mi North 13.8 mph 23.0 mph N/A Snow Light Snow
1:15 PM 33.8 °F 23.9 °F 32.0 °F 93% 29.39 in 1.0 mi North 15.0 mph 23.0 mph N/A Snow Light Snow
1:35 PM 33.8 °F 23.5 °F 32.0 °F 93% 29.38 in 1.2 mi North 16.1 mph 25.3 mph N/A Snow Light Snow
1:55 PM 33.8 °F 23.5 °F 32.0 °F 93% 29.38 in 1.0 mi North 16.1 mph 23.0 mph N/A Snow Light Snow
2:15 PM 33.8 °F 23.9 °F 32.0 °F 93% 29.37 in 0.8 mi North 15.0 mph 24.2 mph N/A Snow Light Snow
2:35 PM 33.8 °F 24.3 °F 32.0 °F 93% 29.37 in 0.8 mi North 13.8 mph 26.5 mph N/A Snow Light Snow
2:55 PM 33.8 °F 23.9 °F 32.0 °F 93% 29.37 in 1.0 mi North 15.0 mph 21.9 mph N/A Snow Light Snow
3:15 PM 33.8 °F 23.9 °F 32.0 °F 93% 29.37 in 1.0 mi North 15.0 mph 20.7 mph N/A Snow Light Snow
3:35 PM 33.8 °F 23.2 °F 32.0 °F 93% 29.37 in 1.0 mi North 17.3 mph 25.3 mph N/A Snow Light Snow
3:55 PM 33.8 °F 23.9 °F 32.0 °F 93% 29.38 in 1.2 mi North 15.0 mph 19.6 mph N/A Snow Light Snow
4:15 PM 33.8 °F 23.5 °F 32.0 °F 93% 29.38 in 1.5 mi North 16.1 mph 23.0 mph N/A Snow Light Snow
4:35 PM 33.8 °F 24.8 °F 32.0 °F 93% 29.39 in 1.8 mi North 12.7 mph 20.7 mph N/A Snow Light Snow
4:55 PM 33.8 °F 22.5 °F 32.0 °F 93% 29.39 in 2.0 mi North 19.6 mph 27.6 mph N/A Snow Light Snow
5:15 PM 33.8 °F 22.2 °F 32.0 °F 93% 29.39 in 1.8 mi NNW 20.7 mph 28.8 mph N/A Snow Light Snow
5:35 PM 33.8 °F 23.9 °F 32.0 °F 93% 29.40 in 2.5 mi NNW 15.0 mph 23.0 mph N/A Snow Light Snow
5:55 PM 33.8 °F 23.9 °F 32.0 °F 93% 29.41 in 2.5 mi NNW 15.0 mph 26.5 mph N/A Snow Light Snow
6:15 PM 33.8 °F 22.8 °F 32.0 °F 93% 29.42 in 2.5 mi NNW 18.4 mph 24.2 mph N/A Snow Light Snow
6:35 PM 33.8 °F 23.2 °F 32.0 °F 93% 29.44 in 2.0 mi NNW 17.3 mph 25.3 mph N/A Snow Light Snow
6:55 PM 33.8 °F 22.8 °F 32.0 °F 93% 29.44 in 1.8 mi NNW 18.4 mph 26.5 mph N/A Snow Light Snow
7:15 PM 33.8 °F 22.8 °F 32.0 °F 93% 29.45 in 1.8 mi NNW 18.4 mph 26.5 mph N/A Snow Light Snow
7:35 PM 33.8 °F 22.8 °F 32.0 °F 93% 29.46 in 1.5 mi NNW 18.4 mph 27.6 mph N/A Snow Light Snow
7:55 PM 33.8 °F 22.8 °F 32.0 °F 93% 29.46 in 1.5 mi NNW 18.4 mph 26.5 mph N/A Snow Light Snow
8:15 PM 33.8 °F 23.5 °F 32.0 °F 93% 29.47 in 1.5 mi NNW 16.1 mph 24.2 mph N/A Snow Light Snow
8:55 PM 33.8 °F 22.8 °F 32.0 °F 93% 29.48 in 2.0 mi NNW 18.4 mph 26.5 mph N/A Snow Light Snow
9:15 PM 33.8 °F 22.8 °F 32.0 °F 93% 29.48 in 2.5 mi NNW 18.4 mph 26.5 mph N/A Snow Light Snow
9:35 PM 33.8 °F 23.5 °F 32.0 °F 93% 29.50 in 2.5 mi NNW 16.1 mph 25.3 mph N/A Snow Light Snow
9:55 PM 33.8 °F 22.8 °F 32.0 °F 93% 29.51 in 2.5 mi NNW 18.4 mph 25.3 mph N/A Snow Light Snow
10:15 PM 33.8 °F 23.5 °F 32.0 °F 93% 29.52 in 3.0 mi NNW 16.1 mph 25.3 mph N/A Snow Light Snow
11:15 PM 33.8 °F 23.9 °F 30.2 °F 87% 29.55 in 7.0 mi NW 15.0 mph 23.0 mph N/A   Overcast
11:35 PM 33.8 °F 23.2 °F 30.2 °F 87% 29.56 in 10.0 mi NW 17.3 mph 24.2 mph N/A   Overcast
11:55 PM 33.8 °F 23.5 °F 28.4 °F 81% 29.57 in 10.0 mi NNW 16.1 mph 23.0 mph N/A   Overcast